Terug naar catalogus

QIANFAN-122

ActiefCommunicatiePO
NORAD 68649·PAYLOAD·🇨🇳 China

Gelanceerd Apr 7, 2026 vanaf Wenchang Space Launch Site

Loading…

Volgende Passages (komende 24 uur)

TLE

VersSource: Space-Track

Epoch: Sep 14, 2026, 21:15 UTC

1 68649U 26075P   26257.88600401  .00000072  00000-0  93226-4 0  9997
2 68649  88.9873 311.8386 0002247  88.9919 271.1489 13.51026988 21915

Volg QIANFAN-122 in realtime met AllMySat

Download on the App Store